Regional Weather Roundup
Issued by NWS

Home | Current Version | Previous Version | Text Only | Print | Product List | Glossary On
Versions: 1 2 3 4 5 6 7 8 9 10 11 12 13 14 15 16 17 18 19 20 21 22 23 24 25 26 27 28 29 30 31 32 33 34 35 36 37 38 39 40 41 42 43 44 45 46 47 48 49 50
000
ASUS45 KBOU 250507
RWRCO

WEATHER ROUNDUP FOR COLORADO
NATIONAL WEATHER SERVICE DENVER/BOULDER CO
1100 PM MDT WED AUG 24 2016

NOTE: "FAIR" INDICATES FEW OR NO CLOUDS BELOW 12000 FEET WITH NO
SIGNIFICANT WEATHER AND/OR OBSTRUCTIONS TO VISIBILITY.

COZ001>005-013-030-031-250600-
...NORTHWEST COLORADO...

CITY           SKY/WX    TMP DP  RH WIND       PRES   REMARKS
CRAIG          FAIR      58  37  45 CALM      30.19R
HAYDEN         FAIR      57  34  41 E6        30.22R
MEEKER         FAIR      57  43  59 N3        30.22S
MOUNT WERNER   NOT AVBL
STEAMBOAT SPGS FAIR      58  35  42 SE6       30.23S
WALDEN         FAIR      43  36  75 E8        30.34F
$$

COZ006>008-011-250600-
...WEST CENTRAL VALLEYS...

CITY           SKY/WX    TMP DP  RH WIND       PRES   REMARKS
GRAND JUNCTION MOCLDY    67  46  47 S12       30.13S
MONTROSE       LGT RAIN  62  49  62 E9        30.23F
EAGLE          CLOUDY    59  36  41 E8        30.27R
RIFLE          FAIR      62  47  57 E6        30.18S
DELTA          FAIR      64  51  62 SE7       30.20R
NUCLA          FAIR      61  43  51 E13       30.25S
$$

COZ017>023-064>068-250600-
...SOUTHWEST COLORADO...

CITY           SKY/WX    TMP DP  RH WIND       PRES   REMARKS
DURANGO        FAIR      52  47  83 NE6       30.29R
CORTEZ         FAIR      57  49  74 NE7       30.21F
PAGOSA SPRINGS FAIR      49  48  93 NE3       30.36S
TELLURIDE      FAIR      51  40  65 CALM      30.45S
WOLF CREEK PAS FAIR      37  37 100 CALM      30.61S
$$

COZ009-010-012-014-032>034-037-058>063-250600-
...CENTRAL COLORADO...

CITY           SKY/WX    TMP DP  RH WIND       PRES   REMARKS
ASPEN          FAIR      49  37  63 SW8       30.32S
BUENA VISTA    FAIR      49  46  87 E7        30.39S
COPPER MTN     MOCLDY    45  32  61 CALM      30.56F
BERTHOUD PASS  MOCLDY    32  19  59 E10       30.58F HAZE    WCI  24
COTTONWOOD PAS MOCLDY    46  45  93 CALM      30.47F FOG
GUNNISON       FAIR      54  39  58 N7        30.36R
KREMMLING      FAIR      50  41  71 CALM      30.32S
LEADVILLE      CLOUDY    43  41  93 SW3       30.45F
MONARCH PASS   FAIR      36  36 100 SW8       30.67S
SALIDA         FAIR      51  48  89 CALM      30.44F
SUNLIGHT       MOCLDY    46  34  61 CALM      30.52F
WILKERSON PASS FAIR      37  36  93 W5        30.56F
$$

COZ069>075-250600-
...SAN LUIS VALLEY/SANGRE DE CRISTO MOUNTAINS...

CITY           SKY/WX    TMP DP  RH WIND       PRES   REMARKS
ALAMOSA        FAIR      50  44  80 NE6       30.34F
LA VETA PASS   FAIR      43  41  93 N3        30.49F
SAGUACHE       FAIR      48  46  93 NW6       30.38S
$$

COZ035-036-038>040-250600-
...NORTHERN COLORADO FRONT RANGE...

CITY           SKY/WX    TMP DP  RH WIND       PRES   REMARKS
DENVER INTL AP FAIR      56  49  77 SW6       30.25F
DMNS CITY PARK   N/A     55  55  98 SW2       30.25F
AURORA         MOCLDY    55  53  91 W1        30.27S
FRONT RANGE AP NOT AVBL
ERIE MUNI ARPT FAIR      55  52  91 CALM      30.23F
BOULDER MUN AP FAIR      55  54  94 CALM      30.24S
CENTENNIAL     MOCLDY    53  46  77 S5        30.27F
BROOMFIELD     NOT AVBL
FORT COLLINS   FAIR      55  52  88 S5        30.23S
LONGMONT       FAIR      56  52  88 CALM      30.25F
$$

COZ041-046-047-076>085-087-088-250600-
...PIKES PEAK/PALMER DIVIDE AND SOUTHERN FOOTHILLS...

CITY           SKY/WX    TMP DP  RH WIND       PRES   REMARKS
COLO. SPRINGS  MOCLDY    56  37  49 E12       30.31R
A. F. ACADEMY  FAIR      50  48  91 NE7       30.31S
SCHRIEVER AFB  NOT AVBL
ELLICOTT       NOT AVBL
FALCON         FAIR      49  38  66 E3        30.35F
FORT CARSON    NOT AVBL
LIMON          FAIR      49  35  58 CALM      30.28S
MONUMENT HILL  FAIR      46  41  81 S7        30.35S
TRINIDAD       MOCLDY    56  54  93 NW5       30.30R
$$

COZ042>045-048>051-090-091-250600-
...NORTHEAST COLORADO...

CITY           SKY/WX    TMP DP  RH WIND       PRES   REMARKS
GREELEY ARPT   FAIR      54  50  87 NE6       30.24S
AKRON          FAIR      57  39  51 SE13      30.24S
BURLINGTON     FAIR      56  42  59 NE3       30.21F
WRAY           NOT AVBL
STERLING       FAIR      59  41  51 SE3       30.20S
HOLYOKE        FAIR      59  50  72 CALM      30.23S
FORT MORGAN    FAIR      56  41  57 E3        30.24R
$$

COZ086-089-092>099-250600-
...SOUTHEAST COLORADO...

CITY           SKY/WX    TMP DP  RH WIND       PRES   REMARKS
PUEBLO         FAIR      62  53  72 E6        30.23R
LA JUNTA       FAIR      65  42  43 E5        30.22S
LAMAR          CLOUDY    63  46  54 N6        30.18S
SPRINGFIELD      N/A     58  54  86 N13       30.18F
$$



USA.gov is the U.S. government's official web portal to all federal, state and local government web resources and services.